User: anonymous   Login
Location: El Limón
(10.3059°N, 67.6321°W)
Time: 13:19:22
(UTC+00:00)
Language:

Cosmos 1862 Rocket - Orbit

View from above orbital plane
View from above orbital plane
View from above satellite
View from above satellite

Ground track
Ground track

The orbit data is extracted from the following two-line orbital elements,

1 18153U 87055B   24173.62799252  .00000540  00000-0  61150-4 0  9998
2 18153  82.4994 218.6768 0019565 282.9881  76.9149 14.84454995977022
Epoch (UTC): 21 June 2024 15:04:18
Eccentricity: 0.0019565
inclination: 82.4994°
perigee height: 601 km
apogee height: 629 km
right ascension of ascending node: 218.6768°
argument of perigee: 282.9881°
revolutions per day: 14.84454995
mean anomaly at epoch: 76.9149°
orbit number at epoch: 97702

The dashed part of the orbit path shows where the satellite is in the earth's shadow,  

DLR